Find Weitong-1 01

NORAD ID: 68202 Int'l Des: NNA 2026-052 Owner: XZKJ Country: CN operational
LEOCIRCULARRETROGRADESSO

实时位置

正在加载3D地球...

关于 Weitong-1 01

正在加载描述...

即将过境

Passes for default location (London). Set your location on the main map for personalized predictions.

高度历史

Loading altitude history...

两行轨道根数

1 68202U 26052E 26121.18974361 .00006538 00000-0 39602-3 0 9999
2 68202 97.5348 196.7336 0013147 111.9822 248.2806 15.10856779 6950
Epoch: May 1, 2026 • Age: 7 hours

当前状态

高度 531.0 km
速度 7.60 km/s
星下点 11.52°N, 15.66°W
发射日期 Mar 16, 2026
运行时间 0.1 years
类型 other

技术详情

分类 Payload
质量 50.00 kg
干质量 50.00 kg
总质量 50.00 kg
长度 0.50 m
直径 0.50 m
跨度 0.50 m
形状 Box
制造商 XZKJ
平台类型 Weitong
阶段状态 In Orbit
所有者/国家 XZKJ/CN

Most Searched